Find Starlink 34957

NORAD ID: 65388 Int'l Des: 2025-191 Owner: SPXS Country: US Constellation: starlink operational
LEOCIRCULARRETROGRADESSO

現在のビュー

3D地球を読み込み中...

About Starlink 34957

Starlink 34957 (NORAD 65388) is a starlink constellation satellite (v2 mini) launched Aug 30, 2025 by SPXS of US. It operates in LEO, CIRCULAR, RETROGRADE, SSO orbit with a mass of 575.00 kg.

次回通過

Passes for default location (London). Set your location on the main map for personalized predictions.

高度履歴

Loading altitude history...

軌道要素

1 65388U 25191K 26265.60819865 .00008185 00000-0 25560-3 0 9995
2 65388 97.2860 131.6440 0002530 108.4370 251.7148 15.33443070 59963
Epoch: Sep 22, 2026 • Age: 15 hours

現在のステータス

高度 487.5 km
遠地点 / 近地点 N/A
速度 7.62 km/s
衛星直下点 -53.72°S, 145.44°W
打ち上げ日 Aug 30, 2025
運用期間 1 year
タイプ internet

技術仕様

分類 Payload
質量 575.00 kg
乾燥質量 530.00 kg
長さ 0.30 m
スパン 29.00 m
形状 ? Box + pan
製造者 SPXS
バスタイプ Starlink V2MO
フェーズステータス In Orbit
所有者/国 SPXS/US

Most Searched